Location: Unspecified
(0.0000°N, 0.0000°E)
Time: 14:10:35
(UTC+02:00)

Tiangong 1 - Visible Passes

Search period start: 28 March 2017 00:00
Search period end: 07 April 2017 00:00
Orbit: 333 x 358 km, 42.8° (Epoch: 26 March)

Date Brightness Start Highest point End Pass type
(mag) Time Alt. Az. Time Alt. Az. Time Alt. Az.
02 Apr 1.3 20:55:22 10° NNW 20:58:09 42° NE 20:59:02 31° E visible
03 Apr 2.8 21:18:58 10° WNW 21:21:27 25° SW 21:22:17 22° SSW visible
05 Apr 3.1 07:30:22 10° SSW 07:32:46 24° SE 07:35:10 10° ENE visible
05 Apr 3.3 20:29:57 10° W 20:32:14 21° SW 20:34:31 10° S visible
